Orbital Elements at Epoch 2459000.5 (2020-May-31.0) TDB
Reference: JPL 12 (heliocentric ecliptic J2000)
Element | Value | Uncertainty (1-sigma) | Units |
e | .03153053048563147 | 5.0403e-08 | |
a | 2.526937542205153 | 2.4304e-08 | au |
q | 2.447261860995367 | 1.2041e-07 | au |
i | 2.580339477835872 | 5.2565e-06 | deg |
node | 12.14034226907168 | 0.00011751 | deg |
peri | 87.52176635840931 | 0.00014812 | deg |
M | 132.4342348168655 | 9.3106e-05 | deg |
tp | 2458460.755837216124 (2018-Dec-08.25583722) | 0.00037608 | TDB |
period | 1467.202939412841 4.02 | 2.1167e-05 5.795e-08 | d yr |
n | .245364830133225 | 3.5398e-09 | deg/d |
Q | 2.60661322341494 | 2.507e-08 | au |
|
| | Orbit Determination Parameters
Additional Information
|